This demonstration page uses our WeatherBlox Daily Observations layout. Learn more.

39.29038, -76.61219

Hourly Observations for March 24, 2019

Temp ( °F °C ) Dew Point ( °F °C ) Humidity (%) Winds ( mph kmh ) Pressure ( in mb ) Visibility ( mi km ) Precip ( " mm )
12:54 am 00:54 undefined 44 6.7 17 -8.3 34 34 undefined N/A 30.21 1023 N/A 0 0
1:54 am 01:54 undefined 44 6.7 15 -9.4 31 31 undefined N/A 30.21 1023 N/A 0 0
2:54 am 02:54 undefined 41 5 20 -6.7 43 43 undefined N/A 30.24 1024 N/A 0 0
3:54 am 03:54 undefined 39 3.9 20 -6.7 46 46 undefined N/A 30.24 1024 N/A 0 0
4:54 am 04:54 undefined 38 3.3 19 -7.2 46 46 undefined N/A 30.24 1024 N/A 0 0
5:54 am 05:54 undefined 38 3.3 20 -6.7 48 48 undefined N/A 30.24 1024 N/A 0 0
6:54 am 06:54 undefined 37 2.8 20 -6.7 50 50 undefined N/A 30.27 1025 N/A 0 0
7:54 am 07:54 undefined 39 3.9 20 -6.7 46 46 undefined N/A 30.3 1026 N/A 0 0
8:54 am 08:54 undefined 44 6.7 20 -6.7 38 38 undefined N/A 30.33 1027 N/A 0 0
9:54 am 09:54 undefined 51 10.6 20 -6.7 29 29 undefined N/A 30.33 1027 N/A 0 0
10:54 am 10:54 undefined 55 12.8 20 -6.7 25 25 undefined N/A 30.3 1026 N/A 0 0
11:54 am 11:54 undefined 61 16.1 16 -8.9 17 17 undefined N/A 30.27 1025 N/A 0 0
12:54 pm 12:54 undefined 62 16.7 14 -10 15 15 undefined N/A 30.24 1024 N/A 0 0
1:54 pm 13:54 undefined 63 17.2 14 -10 15 15 undefined N/A 30.18 1022 N/A 0 0
2:54 pm 14:54 undefined 64 17.8 17 -8.3 16 16 undefined N/A 30.12 1020 N/A 0 0
3:54 pm 15:54 undefined 65 18.3 16 -8.9 15 15 undefined N/A 30.09 1019 N/A 0 0
4:54 pm 16:54 undefined 61 16.1 27 -2.8 27 27 undefined N/A 30.09 1019 N/A 0 0
5:54 pm 17:54 undefined 60 15.6 26 -3.3 27 27 undefined N/A 30.09 1019 N/A 0 0
6:54 pm 18:54 undefined 58 14.4 29 -1.7 33 33 undefined N/A 30.09 1019 N/A 0 0
7:54 pm 19:54 undefined 57 13.9 28 -2.2 33 33 undefined N/A 30.06 1018 N/A 0 0
8:54 pm 20:54 undefined 55 12.8 31 -0.6 40 40 undefined N/A 30.09 1019 N/A 0 0
9:54 pm 21:54 undefined 54 12.2 34 1.1 47 47 undefined N/A 30.09 1019 N/A 0 0
10:54 pm 22:54 undefined 53 11.7 35 1.7 51 51 undefined N/A 30.06 1018 N/A 0 0
11:54 pm 23:54 undefined 51 10.6 38 3.3 61 61 undefined N/A 30.06 1018 N/A 0 0

Powered by AerisWeather